カタログに戻る

SATCOM 3 DEB

LostHEO
NORAD 32986·DEBRIS·🇺🇸 United States

打ち上げ Dec 7, 1979 から Cape Canaveral Space Force Station

Loading…

次のパス (今後24時間)

TLE

古いSource: Space-Track

元期: Jul 31, 2026, 18:59 UTC

1 32986U 79101M   26212.79159102 -.00000084  00000-0  00000+0 0  9995
2 32986   8.8886  74.0930 4818954 123.1224 201.3738  1.82660073123457

AllMySatでSATCOM 3 DEBをリアルタイム追跡

Download on the App Store